Data from ESP8266 test

Home
 
ID
int : 20
DEVICE_ID
int : 11
TEMP_IN
int : 11
TEMP_OUT
int : 11
HUMID
int : 11
ATMOS
int : 11
TIME
timestamp : 19
241  199  65  1012  2018-08-30 13:30:32 
231  201  72  1012  2018-08-30 13:44:58 
211  201  74  1011  2018-08-30 13:59:24 
225  202  74  1012  2018-08-30 14:13:50 
204  203  74  1012  2018-08-30 14:28:16 
209  203  74  1012  2018-08-30 14:42:43 
232  195  73  1012  2018-08-30 14:57:09 
233  195  72  1011  2018-08-30 15:11:35 
221  195  72  1012  2018-08-30 15:26:01 
10  221  194  71  1012  2018-08-30 15:40:28 
11  227  194  71  1012  2018-08-30 15:54:54 
12  228  196  71  1012  2018-08-30 16:09:26 
13  216  173  75  1012  2018-08-30 17:32:39 
14  213  168  75  1012  2018-08-30 17:47:05 
15  207  167  76  1012  2018-08-30 18:01:31 
16  217  159  76  1012  2018-08-30 18:15:58 
17  212  156  76  1012  2018-08-30 18:30:24 
18  213  157  76  1012  2018-08-30 18:44:50 
19  209  152  76  1013  2018-08-30 18:59:17 
20  213  153  77  1013  2018-08-30 19:13:43 
21  204  148  77  1013  2018-08-30 19:28:09 
22  200  144  100  1013  2018-08-30 19:42:36 
23  208  144  77  1014  2018-08-30 19:57:02 
24  209  138  100  1014  2018-08-30 20:11:28 
25  194  136  100  1013  2018-08-30 20:25:54 
26  193  132  100  1013  2018-08-30 20:40:21 
27  199  130  101  1014  2018-08-30 20:54:47 
28  201  129  101  1013  2018-08-30 21:09:13 
29  193  124  101  1013  2018-08-30 21:23:40 
30  197  127  101  1013  2018-08-30 21:38:06 
31  192  125  102  1013  2018-08-30 21:52:32 
32  187  121  102  1013  2018-08-30 22:06:59 
33  188  124  102  1013  2018-08-30 22:21:25 
34  188  121  102  1013  2018-08-30 22:35:52 
35  189  122  102  1013  2018-08-30 22:50:18 
36  189  114  102  1014  2018-08-30 23:04:44 
37  182  115  103  1013  2018-08-30 23:19:11 
38  181  113  103  1013  2018-08-30 23:33:37 
39  179  111  102  1014  2018-08-30 23:48:03 
40  184  114  102  1013  2018-08-31 00:02:30 
41  185  108  103  1013  2018-08-31 00:16:56 
42  174  109  103  1013  2018-08-31 00:31:22 
43  177  108  103  1012  2018-08-31 00:45:49 
44  178  105  103  1013  2018-08-31 01:00:15 
45  174  103  103  1013  2018-08-31 01:14:42 
46  173  100  103  1013  2018-08-31 01:29:08 
47  175  107  103  1013  2018-08-31 01:43:34 
48  173  110  103  1014  2018-08-31 01:58:01 
49  170  113  103  1013  2018-08-31 02:12:27 
50  182  115  103  1014  2018-08-31 02:26:53 
51  173  117  103  1014  2018-08-31 02:41:20 
52  171  116  104  1014  2018-08-31 02:55:46 
53  169  115  104  1014  2018-08-31 03:10:13 
54  171  118  104  1014  2018-08-31 03:24:39 
55  176  118  104  1014  2018-08-31 03:39:06 
56  170  120  104  1014  2018-08-31 03:53:32 
57  175  119  104  1014  2018-08-31 04:07:59 
58  168  123  104  1014  2018-08-31 04:22:25 
59  187  122  104  1014  2018-08-31 04:36:52 
60  170  120  104  1014  2018-08-31 04:51:18 
61  170  118  105  1015  2018-08-31 05:05:44 
62  169  121  105  1015  2018-08-31 05:20:11 
63  168  120  105  1015  2018-08-31 05:34:37 
64  168  121  105  1014  2018-08-31 05:49:04 
65  170  121  105  1016  2018-08-31 06:03:30 
66  172  122  105  1015  2018-08-31 06:17:57 
67  171  122  105  1015  2018-08-31 06:32:23 
68  175  124  105  1015  2018-08-31 06:46:50 
69  182  118  106  1017  2018-08-31 07:01:16 
70  186  124  106  1016  2018-08-31 07:15:42 
71  181  126  106  1016  2018-08-31 07:30:09 
72  186  135  107  1016  2018-08-31 07:44:35 
73  174  130  107  1016  2018-08-31 07:59:02 
74  179  135  111  1016  2018-08-31 08:13:28 
75  183  134  110  1016  2018-08-31 08:27:54 
76  182  140  110  1016  2018-08-31 08:42:21 
77  180  145  111  1016  2018-08-31 08:56:47 
78  180  153  111  1017  2018-08-31 09:11:14 
79  186  152  110  1016  2018-08-31 09:25:40 
80  184  153  110  1017  2018-08-31 09:40:08 
81  201  180  103  1017  2018-08-31 11:35:34 
82  211  175  102  1017  2018-08-31 11:50:00 
83  199  176  102  1017  2018-08-31 12:04:27 
84  218  191  102  1017  2018-08-31 12:18:53 
85  207  198  102  1017  2018-08-31 12:33:20 
86  208  196  100  1016  2018-08-31 12:47:46 
87  208  199  100  1015  2018-08-31 13:02:12 
88  223  194  74  1016  2018-08-31 15:07:04 
89  222  189  73  1016  2018-08-31 15:21:30 
90  214  186  73  1016  2018-08-31 15:35:56 
91  227  185  74  1017  2018-08-31 15:50:23 
92  224  178  73  1017  2018-08-31 16:04:49 
93  224  177  74  1017  2018-08-31 16:19:15 
94  218  182  74  1017  2018-08-31 16:33:41 
95  209  172  74  1016  2018-08-31 16:48:08 
96  209  168  75  1016  2018-08-31 17:02:34 
97  214  167  75  1016  2018-08-31 17:17:00 
98  210  167  76  1016  2018-08-31 17:31:27 
99  210  162  75  1016  2018-08-31 17:45:53 
100  209  159  76  1016  2018-08-31 18:00:19 
101  215  158  76  1016  2018-08-31 18:14:45 
102  214  155  76  1016  2018-08-31 18:29:12 
103  213  151  76  1016  2018-08-31 18:43:38 
104  221  152  76  1017  2018-08-31 18:58:04 
105  225  152  76  1018  2018-08-31 19:12:31 
106  236  149  76  1017  2018-08-31 19:26:57 
107  239  148  75  1017  2018-08-31 19:41:24 
108  236  150  74  1017  2018-08-31 19:55:50 
109  240  148  74  1018  2018-08-31 20:10:16 
110  242  150  73  1016  2018-08-31 20:24:43 
111  241  147  73  1017  2018-08-31 20:39:09 
112  236  146  72  1017  2018-08-31 20:53:35 
113  239  147  73  1018  2018-08-31 21:08:02 
114  247  145  73  1017  2018-08-31 21:22:28 
115  245  145  73  1017  2018-08-31 21:36:54 
116  245  143  73  1017  2018-08-31 21:51:21 
117  248  141  72  1017  2018-08-31 22:05:47 
118  245  144  72  1017  2018-08-31 22:20:13 
119  246  141  72  1017  2018-08-31 22:34:40 
120  239  141  71  1017  2018-08-31 22:49:06 
121  235  142  71  1017  2018-08-31 23:03:32 
122  230  145  72  1018  2018-08-31 23:17:59 
123  213  138  73  1017  2018-08-31 23:32:25 
124  206  140  75  1017  2018-08-31 23:46:51 
125  201  137  76  1018  2018-09-01 00:01:17 
126  200  130  77  1017  2018-09-01 00:15:44 
127  195  130  100  1017  2018-09-01 00:30:10 
128  188  123  100  1017  2018-09-01 00:44:36 
129  193  122  101  1017  2018-09-01 00:59:03 
130  189  121  102  1018  2018-09-01 01:13:29 
131  182  115  102  1017  2018-09-01 01:27:56 
132  183  116  103  1017  2018-09-01 01:42:23 
133  189  115  104  1017  2018-09-01 03:23:24 
134  175  114  104  1016  2018-09-01 03:37:51 
135  174  113  104  1016  2018-09-01 03:52:17 
136  172  117  104  1017  2018-09-01 04:06:43 
137  176  115  104  1017  2018-09-01 04:21:10 
138  168  112  104  1017  2018-09-01 04:35:36 
139  176  112  104  1016  2018-09-01 04:50:03 
140  173  110  104  1017  2018-09-01 05:04:29 
141  171  110  105  1016  2018-09-01 05:18:55 
142  167  109  105  1015  2018-09-01 05:33:22 
143  174  109  105  1016  2018-09-01 05:47:48 
144  165  102  105  1017  2018-09-01 06:02:15 
145  160  100  105  1016  2018-09-01 06:16:41 
146  164  102  105  1016  2018-09-01 06:31:07 
147  169  99  105  1017  2018-09-01 06:45:34 
148  167  101  105  1016  2018-09-01 07:00:00 
149  165  104  105  1016  2018-09-01 07:14:26 
150  168  106  105  1017  2018-09-01 07:28:53 
151  157  107  106  1017  2018-09-01 07:43:19 
152  160  112  106  1017  2018-09-01 07:57:45 
153  174  119  106  1017  2018-09-01 08:12:12 
154  160  132  106  1017  2018-09-01 08:26:38 
155  175  138  106  1017  2018-09-01 08:41:04 
156  161  143  106  1018  2018-09-01 08:55:31 
157  169  145  106  1017  2018-09-01 09:09:58 
158  162  153  106  1017  2018-09-01 09:24:24 
159  170  155  107  1017  2018-09-01 09:38:51 
160  166  164  110  1017  2018-09-01 09:53:17 
161  190  164  107  1017  2018-09-01 10:07:43 
162  188  168  107  1017  2018-09-01 10:22:10 
163  178  171  106  1016  2018-09-01 10:43:47 
164  177  172  106  1016  2018-09-01 10:58:13 
165  200  174  106  1017  2018-09-01 11:12:40 
166  178  172  105  1017  2018-09-01 11:27:06 
167  179  175  104  1017  2018-09-01 11:41:33 
168  196  187  104  1017  2018-09-01 11:55:59 
169  183  181  104  1016  2018-09-01 12:10:26 
170  190  182  103  1016  2018-09-01 12:24:52 
171  183  180  103  1016  2018-09-01 12:39:19 
172  184  186  102  1016  2018-09-01 12:53:45 
173  193  194  102  1015  2018-09-01 13:08:12 
174  202  187  101  1015  2018-09-01 13:22:38 
175  190  193  101  1015  2018-09-01 13:37:05 
176  193  181  77  1015  2018-09-01 13:51:31 
177  211  188  77  1015  2018-09-01 14:05:57 
178  201  182  77  1015  2018-09-01 14:20:23 
179  196  193  77  1015  2018-09-01 14:34:50 
180  200  192  76  1014  2018-09-01 14:49:16 
181  198  198  75  1014  2018-09-01 15:03:42 
182  199  186  74  1014  2018-09-01 15:18:08 
183  212  182  73  1015  2018-09-01 15:32:34 
184  209  192  74  1015  2018-09-01 15:47:00 
185  207  171  75  1015  2018-09-01 16:01:27 
186  199  175  76  1014  2018-09-01 16:15:53 
187  197  170  76  1014  2018-09-01 16:30:19 
188  197  170  76  1014  2018-09-01 16:44:47 
189  198  173  76  1014  2018-09-01 16:59:13 
190  206  168  75  1014  2018-09-01 17:13:39 
191  199  165  75  1014  2018-09-01 17:28:05 
192  198  168  75  1014  2018-09-01 17:42:31 
193  197  158  75  1015  2018-09-01 17:56:57 
194  202  150  76  1014  2018-09-01 18:11:24 
195  206  148  76  1014  2018-09-01 18:25:50 
196  207  147  76  1014  2018-09-01 18:40:16 
197  207  145  76  1015  2018-09-01 18:54:43 
198  205  143  76  1015  2018-09-01 19:09:09 
199  202  138  76  1014  2018-09-01 19:23:35 
200  200  137  76  1014  2018-09-01 19:38:02 
201  200  137  76  1014  2018-09-01 19:52:28 
202  200  133  76  1014  2018-09-01 20:06:54 
203  206  129  76  1014  2018-09-01 20:21:20 
204  195  125  76  1015  2018-09-01 20:35:46 
205  191  131  77  1014  2018-09-01 20:50:12 
206  194  126  77  1015  2018-09-01 21:04:38 
207  186  125  100  1015  2018-09-01 21:19:04 
208  184  120  100  1015  2018-09-01 21:33:31 
209  180  124  101  1015  2018-09-01 21:47:57 
210  192  123  101  1015  2018-09-01 22:02:24 
211  187  119  101  1014  2018-09-01 22:16:50 
212  182  121  101  1014  2018-09-01 22:31:16 
213  184  118  102  1014  2018-09-01 22:45:43 
214  182  112  102  1014  2018-09-01 23:00:09 
215  180  110  102  1014  2018-09-01 23:14:36 
216  176  114  102  1014  2018-09-01 23:29:02 
217  180  112  103  1013  2018-09-01 23:43:28 
218  169  114  103  1013  2018-09-01 23:57:55 
219  178  113  103  1013  2018-09-02 00:12:21 
220  182  114  103  1014  2018-09-02 00:26:48 
221  168  107  103  1014  2018-09-02 00:41:14 
222  171  111  103  1014  2018-09-02 00:55:41 
223  166  110  103  1014  2018-09-02 01:10:08 
224  167  110  103  1013  2018-09-02 01:24:34 
225  166  104  103  1014  2018-09-02 01:39:01 
226  164  99  103  1014  2018-09-02 01:53:28 
227  172  99  103  1014  2018-09-02 02:07:54 
228  178  96  103  1013  2018-09-02 02:22:19 
229  166  99  103  1014  2018-09-02 02:36:45 
230  167  94  103  1013  2018-09-02 02:51:11 
231  167  98  103  1013  2018-09-02 03:05:37 
232  158  97  104  1013  2018-09-02 03:20:03 
233  162  91  104  1013  2018-09-02 03:34:29 
234  158  91  104  1012  2018-09-02 03:48:55 
235  159  96  104  1013  2018-09-02 04:03:21 
236  156  88  104  1013  2018-09-02 04:17:47 
237  170  90  104  1012  2018-09-02 04:32:13 
238  170  88  104  1013  2018-09-02 04:46:38 
239  153  91  104  1013  2018-09-02 05:01:04 
240  154  92  104  1013  2018-09-02 05:15:30 
241  167  88  104  1013  2018-09-02 05:29:56 
242  158  91  104  1013  2018-09-02 05:44:22 
243  151  87  104  1013  2018-09-02 05:58:48 
244  150  90  104  1013  2018-09-02 06:13:14 
245  153  90  104  1013  2018-09-02 06:27:40 
246  155  96  104  1014  2018-09-02 06:42:06 
247  146  114  106  1014  2018-09-02 06:56:32 
248  166  107  106  1015  2018-09-02 07:10:59 
249  148  110  107  1015  2018-09-02 07:25:25 
250  153  110  107  1015  2018-09-02 07:39:52 
251  168  111  110  1015  2018-09-02 07:54:18 
252  145  115  110  1015  2018-09-02 08:08:44 
253  151  118  110  1016  2018-09-02 08:23:11 
254  166  117  110  1015  2018-09-02 08:37:37 
255  147  120  110  1015  2018-09-02 08:52:03 
256  157  120  110  1016  2018-09-02 09:06:30 
257  157  127  110  1016  2018-09-02 09:20:57 
258  154  134  107  1015  2018-09-02 09:35:23 
259  152  139  107  1015  2018-09-02 09:49:50 
260  155  137  107  1015  2018-09-02 10:04:16 
261  159  142  107  1015  2018-09-02 10:18:43 
262  158  147  107  1015  2018-09-02 10:33:09 
263  166  159  100  1016  2018-09-02 10:48:19 
264  168  161  77  1015  2018-09-02 11:02:46 
265  179  167  76  1015  2018-09-02 11:17:12 
266  170  165  75  1015  2018-09-02 11:31:38 
267  172  171  75  1015  2018-09-02 11:46:04 
268  185  173  74  1015  2018-09-02 12:00:30 
269  188  174  74  1015  2018-09-02 12:14:56 
270  196  179  74  1014  2018-09-02 12:29:23 
271  191  180  73  1015  2018-09-02 12:43:49 
272  205  188  71  1015  2018-09-02 12:58:15 
273  184  193  70  1015  2018-09-02 13:12:41 
274  188  191  66  1014  2018-09-02 13:27:08 
275  189  195  66  1014  2018-09-02 13:41:34 
276  196  198  64  1014  2018-09-02 13:56:00 
277  210  202  64  1014  2018-09-02 14:10:26 
278  216  203  64  1014  2018-09-02 14:24:52 
279  213  206  64  1015  2018-09-02 14:39:18 
280  213  205  63  1015  2018-09-02 14:53:45 
281  207  204  62  1016  2018-09-02 15:08:11 
282  218  202  61  1015  2018-09-02 15:22:38 
283  217  188  61  1016  2018-09-02 15:37:04 
284  217  185  62  1015  2018-09-02 15:51:30 
285  207  185  62  1015  2018-09-02 16:05:56 
286  203  168  63  1015  2018-09-02 16:20:22 
287  210  153  65  1015  2018-09-02 16:34:48 
288  208  150  70  1016  2018-09-02 16:49:15 
289  203  138  70  1016  2018-09-02 17:03:41 
290  195  140  70  1017  2018-09-02 17:18:07 
291  191  145  71  1017  2018-09-02 17:32:33 
292  192  140  71  1017  2018-09-02 17:46:59 
293  192  145  71  1017  2018-09-02 18:01:25 
294  189  143  72  1017  2018-09-02 18:15:51 
295  198  146  72  1017  2018-09-02 18:30:18 
296  188  142  72  1017  2018-09-02 18:44:44 
297  185  141  72  1018  2018-09-02 18:59:10 
298  199  138  73  1018  2018-09-02 19:13:36 
299  191  141  73  1018  2018-09-02 19:28:02 
300  184  137  73  1019  2018-09-02 19:42:28 
301  185  137  73  1018  2018-09-02 19:56:54 
302  190  134  73  1018  2018-09-02 20:11:20 
303  186  126  74  1019  2018-09-02 20:25:47 
304  187  124  74  1019  2018-09-02 20:40:13 
305  191  126  74  1019  2018-09-02 20:54:39 
306  192  125  74  1019  2018-09-02 21:09:05 
307  194  129  74  1020  2018-09-02 21:23:31 
308  190  124  74  1020  2018-09-02 21:37:57 
309  187  122  74  1019  2018-09-02 21:52:24 
310  183  124  75  1019  2018-09-02 22:06:50 
311  179  124  75  1019  2018-09-02 22:21:16 
312  188  120  75  1019  2018-09-02 22:35:42 
313  185  119  75  1019  2018-09-02 22:50:09 
314  176  120  75  1019  2018-09-02 23:04:35 
315  180  119  75  1019  2018-09-02 23:19:01 
316  173  115  76  1019  2018-09-02 23:33:27 
317  182  116  76  1019  2018-09-02 23:47:54 
318  178  113  76  1020  2018-09-03 00:02:20 
319  177  110  76  1019  2018-09-03 00:16:46 
320  174  116  76  1019  2018-09-03 00:31:12 
321  168  115  76  1019  2018-09-03 00:45:38 
322  173  118  76  1019  2018-09-03 01:00:05 
323  175  121  76  1019  2018-09-03 01:14:31 
324  177  123  76  1020  2018-09-03 01:28:57 
325  171  121  77  1019  2018-09-03 01:43:23 
326  167  120  77  1019  2018-09-03 01:57:50 
327  169  121  77  1019  2018-09-03 02:12:16 
328  173  122  77  1019  2018-09-03 02:26:42 
329  182  118  77  1019  2018-09-03 02:41:09 
330  164  120  77  1019  2018-09-03 02:55:35 
331  172  119  77  1019  2018-09-03 03:10:01 
332  176  119  77  1019  2018-09-03 03:24:28 
333  171  122  77  1018  2018-09-03 03:38:54 
334  168  122  77  1018  2018-09-03 03:53:20 
335  167  124  77  1018  2018-09-03 04:07:46 
336  167  127  77  1019  2018-09-03 04:22:12 
337  177  126  77  1018  2018-09-03 04:36:38 
338  166  124  77  1018  2018-09-03 04:51:04 
339  165  124  100  1018  2018-09-03 05:05:31 
340  180  126  100  1018  2018-09-03 05:19:57 
341  178  126  100  1018  2018-09-03 05:34:24 
342  162  127  100  1018  2018-09-03 05:48:50 
343  167  126  100  1018  2018-09-03 06:03:17 
344  167  126  100  1017  2018-09-03 06:17:43 
345  167  125  100  1018  2018-09-03 06:32:10 
346  163  125  100  1018  2018-09-03 06:46:36 
347  159  125  100  1018  2018-09-03 07:01:03 
348  161  127  100  1018  2018-09-03 07:15:30 
349  180  126  100  1017  2018-09-03 07:29:56 
350  162  128  100  1018  2018-09-03 07:44:23 
351  167  129  100  1018  2018-09-03 07:58:49 
352  178  132  100  1018  2018-09-03 08:13:16 
353  159  133  101  1018  2018-09-03 08:27:42 
354  176  135  101  1018  2018-09-03 08:42:09 
355  176  168  77  1018  2018-09-03 10:23:11 
356  198  169  76  1017  2018-09-03 10:37:37 
357  187  172  76  1018  2018-09-03 10:52:03 
358  181  172  74  1017  2018-09-03 11:06:29 
359  193  175  71  1017  2018-09-03 11:41:38 
360  194  175  71  1016  2018-09-03 11:56:04 
361  201  186  71  1016  2018-09-03 12:10:30 
362  202  189  70  1014  2018-09-03 12:24:57 
363  193  190  67  1014  2018-09-03 12:39:23 
364  194  196  67  1014  2018-09-03 12:53:49 
365  196  200  67  1013  2018-09-03 13:08:15 
366  206  210  66  1013  2018-09-03 13:22:41 
367  205  211  65  1014  2018-09-03 13:37:08 
368  204  211  64  1014  2018-09-03 13:51:34 
369  215  204  63  1012  2018-09-03 14:06:00 
370  209  207  62  1012  2018-09-03 14:20:26 
371  231  209  61  1012  2018-09-03 14:34:52 
372  213  206  61  1011  2018-09-03 14:49:19 
373  218  204  61  1012  2018-09-03 15:03:45 
374  214  201  60  1012  2018-09-03 15:18:11 
375  217  196  60  1012  2018-09-03 15:32:37 
376  221  196  57  1012  2018-09-03 15:47:03 
377  218  186  57  1012  2018-09-03 16:01:30 
378  216  171  60  1012  2018-09-03 16:15:56 
379  223  175  60  1012  2018-09-03 16:30:22 
380  217  175  60  1012  2018-09-03 16:44:48 
381  222  171  60  1012  2018-09-03 16:59:15 
382  214  170  61  1012  2018-09-03 17:13:41 
383  210  160  62  1013  2018-09-03 17:28:07 
384  212  160  62  1013  2018-09-03 17:42:33 
385  219  153  63  1013  2018-09-03 17:57:00 
386  205  153  64  1013  2018-09-03 18:11:26 
387  206  148  65  1013  2018-09-03 18:25:52 
388  205  150  66  1013  2018-09-03 18:40:18 
389  213  147  66  1013  2018-09-03 18:54:45 
390  206  146  66  1012  2018-09-03 19:09:11 
391  208  142  67  1013  2018-09-03 19:23:37 
392  202  138  67  1012  2018-09-03 19:38:04 
393  204  133  67  1012  2018-09-03 19:52:31 
394  201  132  67  1013  2018-09-03 20:06:57 
395  199  130  67  1013  2018-09-03 20:21:23 
396  212  127  67  1013  2018-09-03 20:35:49 
397  205  136  70  1013  2018-09-03 20:50:16 
398  206  137  67  1013  2018-09-03 21:04:42 
399  207  138  67  1012  2018-09-03 21:19:08 
400  194  136  70  1012  2018-09-03 21:33:34 
401  205  137  70  1013  2018-09-03 21:48:01 
402  200  138  70  1012  2018-09-03 22:02:27 
403  200  138  70  1012  2018-09-03 22:16:53 
404  202  137  70  1012  2018-09-03 22:31:19 
405  192  137  70  1011  2018-09-03 22:45:45 
406  196  137  71  1011  2018-09-03 23:00:12 
407  195  137  71  1011  2018-09-03 23:14:38 
408  183  134  71  1011  2018-09-03 23:29:04 
409  199  137  71  1011  2018-09-03 23:43:31 
410  190  128  71  1011  2018-09-03 23:57:57 
411  180  124  71  1010  2018-09-04 00:12:23 
412  179  121  72  1010  2018-09-04 00:26:49 
413  185  117  72  1010  2018-09-04 00:41:15 
414  186  118  72  1010  2018-09-04 00:55:41 
415  189  118  72  1010  2018-09-04 01:10:07 
416  175  127  72  1010  2018-09-04 01:24:34 
417  192  129  72  1011  2018-09-04 01:39:00 
418  192  123  72  1011  2018-09-04 01:53:26 
419  182  122  72  1011  2018-09-04 02:07:52 
420  178  125  72  1011  2018-09-04 02:22:18 
421  171  129  72  1011  2018-09-04 02:36:44 
422  169  130  72  1011  2018-09-04 02:51:11 
423  168  126  73  1010  2018-09-04 03:05:37 
424  172  119  73  1011  2018-09-04 03:20:03 
425  177  113  73  1011  2018-09-04 03:34:29 
426  175  121  73  1010  2018-09-04 03:48:56 
427  169  121  73  1010  2018-09-04 04:03:22 
428  185  121  73  1010  2018-09-04 04:17:48 
429  170  122  73  1010  2018-09-04 04:32:14 
430  175  123  73  1010  2018-09-04 04:46:40 
431  179  126  74  1009  2018-09-04 05:01:06 
432  174  124  74  1010  2018-09-04 05:15:33 
433  177  126  74  1010  2018-09-04 05:29:59 
434  180  124  74  1010  2018-09-04 05:44:25 
435  169  123  74  1010  2018-09-04 05:58:51 
436  176  119  74  1010  2018-09-04 06:13:17 
437  173  117  74  1011  2018-09-04 06:27:43 
438  164  114  74  1010  2018-09-04 06:42:09 
439  165  109  75  1010  2018-09-04 06:56:36 
440  166  116  75  1009  2018-09-04 07:11:02 
441  178  116  75  1011  2018-09-04 07:25:28 
442  179  119  75  1011  2018-09-04 07:39:54 
443  164  121  75  1012  2018-09-04 07:54:20 
444  170  125  75  1012  2018-09-04 08:08:47 
445  181  123  75  1012  2018-09-04 08:23:13 
446  181  122  75  1012  2018-09-04 08:37:39 
447  173  121  75  1011  2018-09-04 08:52:05 
448  170  128  75  1012  2018-09-04 09:06:31 
449  163  134  75  1011  2018-09-04 09:20:57 
450  168  137  75  1012  2018-09-04 09:35:24 
451  177  143  75  1011  2018-09-04 09:49:50 
452  175  150  74  1012  2018-09-04 10:04:16 
453  174  149  73  1012  2018-09-04 10:18:43 
454  176  151  72  1011  2018-09-04 10:33:09 
455  175  151  72  1011  2018-09-04 10:47:35 
456  176  144  72  1011  2018-09-04 11:02:02 
457  186  157  71  1011  2018-09-04 11:16:28 
458  192  162  71  1011  2018-09-04 11:30:54 
459  192  158  71  1011  2018-09-04 11:45:20 
460  177  161  70  1010  2018-09-04 11:59:47 
461  183  169  70  1010  2018-09-04 12:14:13 
462  179  174  67  1010  2018-09-04 12:28:39 
463  200  175  67  1010  2018-09-04 12:43:05 
464  199  173  66  1010  2018-09-04 12:57:31 
465  188  180  66  1011  2018-09-04 13:11:58 
466  192  180  65  1011  2018-09-04 13:26:24 
467  199  189  65  1010  2018-09-04 13:40:50 
468  193  181  64  1010  2018-09-04 13:55:16 
469  202  179  63  1009  2018-09-04 14:09:42 
470  201  191  63  1009  2018-09-04 14:24:09 
471  199  195  61  1009  2018-09-04 14:38:35 
472  201  193  60  1009  2018-09-04 14:53:01 
473  222  194  57  1009  2018-09-04 15:07:27 
474  211  182  60  1009  2018-09-04 15:21:54 
475  206  165  60  1009  2018-09-04 15:36:20 
476  199  160  62  1009  2018-09-04 15:50:46 
477  201  154  64  1010  2018-09-04 16:05:12 
478  194  151  65  1009  2018-09-04 16:19:38 
479  203  146  66  1011  2018-09-04 16:34:05 
480  207  140  66  1010  2018-09-04 16:48:32 
481  204  139  66  1010  2018-09-04 17:02:58 
482  204  142  66  1011  2018-09-04 17:17:24 
483  208  134  66  1010  2018-09-04 17:31:50 
484  211  134  67  1011  2018-09-04 17:46:17 
485  206  131  70  1011  2018-09-04 18:00:43 
486  212  125  67  1012  2018-09-04 18:15:09 
487  215  122  66  1011  2018-09-04 18:29:36 
488  228  121  65  1012  2018-09-04 18:44:02 
489  226  119  65  1012  2018-09-04 18:58:28 
490  224  119  65  1013  2018-09-04 19:12:54 
491  230  113  64  1013  2018-09-04 19:27:21 
492  229  113  64  1013  2018-09-04 19:41:47 
493  231  107  63  1014  2018-09-04 19:56:13 
494  232  116  63  1013  2018-09-04 20:10:40 
495  238  120  63  1014  2018-09-04 20:25:06 
496  234  113  62  1014  2018-09-04 20:39:32 
497  239  110  62  1014  2018-09-04 20:53:59 
498  232  109  62  1014  2018-09-04 21:08:25 
499  240  112  62  1014  2018-09-04 21:22:51 
500  242  112  62  1014  2018-09-04 21:37:17 
501  223  113  62  1013  2018-09-04 21:51:44 
502  213  110  64  1012  2018-09-04 22:06:10 
503  207  114  65  1013  2018-09-04 22:20:36 
504  200  113  66  1014  2018-09-04 22:35:02 
505  197  113  67  1013  2018-09-04 22:49:29 
506  193  118  67  1013  2018-09-04 23:03:55 
507  184  113  70  1013  2018-09-04 23:18:21 
508  184  112  71  1013  2018-09-04 23:32:47 
509  181  115  71  1014  2018-09-04 23:47:14 
510  185  112  72  1013  2018-09-05 00:01:40 
511  185  113  72  1013  2018-09-05 00:16:06 
512  181  108  72  1013  2018-09-05 00:30:32 
513  187  111  73  1014  2018-09-05 00:44:59 
514  178  110  73  1014  2018-09-05 00:59:25 
515  174  109  73  1014  2018-09-05 01:13:51 
516  175  110  73  1014  2018-09-05 01:28:17 
517  174  110  73  1013  2018-09-05 01:42:43 
518  181  110  73  1014  2018-09-05 01:57:10 
519  175  107  74  1013  2018-09-05 02:11:36 
520  173  110  74  1013  2018-09-05 02:26:02 
521  173  109  74  1013  2018-09-05 02:40:28 
522  175  107  74  1013  2018-09-05 02:54:54 
523  182  108  74  1014  2018-09-05 03:09:21 
524  171  110  74  1013  2018-09-05 03:23:47 
525  176  110  74  1013  2018-09-05 03:38:13 
526  172  109  74  1013  2018-09-05 03:52:39 
527  166  113  74  1013  2018-09-05 04:07:05 
528  173  114  74  1013  2018-09-05 04:21:32 
529  163  117  74  1013  2018-09-05 04:35:58 
530  164  114  74  1013  2018-09-05 04:50:24 
531  164  113  74  1013  2018-09-05 05:04:50 
532  167  114  74  1014  2018-09-05 05:19:16 
533  172  118  74  1014  2018-09-05 05:33:43 
534  174  116  74  1014  2018-09-05 05:48:09 
535  168  118  74  1014  2018-09-05 06:02:35 
536  165  119  73  1015  2018-09-05 06:17:01 
537  158  119  74  1015  2018-09-05 06:31:27 
538  167  121  73  1014  2018-09-05 06:45:53 
539  161  117  73  1015  2018-09-05 07:00:20 
540  174  121  73  1015  2018-09-05 07:14:46 
541  165  114  73  1015  2018-09-05 07:29:12 
542  160  111  73  1015  2018-09-05 07:43:38 
543  166  96  73  1016  2018-09-05 07:58:04 
544  159  100  73  1016  2018-09-05 08:12:29 
545  159  100  74  1016  2018-09-05 08:26:56 
546  164  103  74  1016  2018-09-05 08:41:22 
547  157  105  74  1017  2018-09-05 08:55:48 
548  158  110  74  1017  2018-09-05 09:10:14 
549  165  112  74  1016  2018-09-05 09:24:40 
550  157  120  74  1017  2018-09-05 09:39:06 
551  174  119  74  1017  2018-09-05 09:53:32 
552  179  123  74  1017  2018-09-05 10:07:58 
553  175  120  70  1017  2018-09-05 10:22:25 
554  190  120  70  1017  2018-09-05 10:36:51 
555  189  121  71  1016  2018-09-05 10:51:17 
556  197  121  70  1017  2018-09-05 11:05:43 
557  202  123  67  1017  2018-09-05 11:20:10 
558  195  120  67  1017  2018-09-05 11:34:36 
559  206  123  66  1017  2018-09-05 11:49:02 
560  201  127  64  1017  2018-09-05 12:03:29 
561  206  137  63  1017  2018-09-05 12:17:56 
562  224  150  57  1017  2018-09-05 13:58:56 
563  229  150  56  1017  2018-09-05 14:13:22 
564  224  146  55  1017  2018-09-05 14:27:48 
565  221  152  55  1016  2018-09-05 14:42:14 
566  218  155  52  1017  2018-09-05 14:56:42 
567  214  160  51  1017  2018-09-05 15:11:08 
568  215  151  51  1016  2018-09-05 15:25:35 
569  215  144  53  1017  2018-09-05 17:06:35 
570  216  136  53  1017  2018-09-05 17:21:01 
571  221  125  53  1018  2018-09-05 17:35:28 
572  219  127  54  1017  2018-09-05 17:49:54 
573  219  122  54  1018  2018-09-05 18:04:20 
574  216  120  54  1018  2018-09-05 18:18:46 
575  218  120  53  1018  2018-09-05 18:33:13 
576  215  118  55  1019  2018-09-05 18:47:39 
577  208  118  56  1019  2018-09-05 19:02:05 
578  201  116  56  1019  2018-09-05 19:16:32 
579  202  118  56  1019  2018-09-05 19:30:58 
580  201  116  57  1019  2018-09-05 19:45:24 
581  213  110  56  1019  2018-09-05 19:59:50 
582  213  110  56  1020  2018-09-05 20:14:17 
583  208  111  56  1020  2018-09-05 20:28:43 
584  212  110  55  1020  2018-09-05 20:43:09 
585  218  110  55  1020  2018-09-05 20:57:36 
586  218  113  55  1020  2018-09-05 21:12:02 
587  214  101  55  1021  2018-09-05 21:26:28 
588  215  102  55  1020  2018-09-05 21:40:55 
589  216  104  55  1020  2018-09-05 21:55:21 
590  208  99  55  1020  2018-09-05 22:09:47 
591  214  100  57  1020  2018-09-05 22:24:13 
592  219  92  56  1021  2018-09-05 22:38:39 
593  214  88  57  1021  2018-09-05 22:53:05 
594  208  81  55  1021  2018-09-05 23:07:30 
595  200  88  56  1021  2018-09-05 23:21:56 
596  185  96  57  1021  2018-09-05 23:36:22 
597  183  90  60  1020  2018-09-05 23:50:47 
598  176  93  61  1021  2018-09-06 00:05:13 
599  169  83  62  1021  2018-09-06 00:19:38 
600  166  83  63  1021  2018-09-06 00:34:04 
601  163  83  64  1020  2018-09-06 00:48:30 
602  163  78  64  1021  2018-09-06 01:02:56 
603  162  82  65  1020  2018-09-06 01:17:22 
604  164  75  65  1020  2018-09-06 01:31:48 
605  159  76  66  1019  2018-09-06 01:46:14 
606  164  84  66  1020  2018-09-06 02:00:40 
607  165  84  66  1019  2018-09-06 02:15:06 
608  157  80  67  1019  2018-09-06 02:29:32 
609  160  81  67  1019  2018-09-06 02:43:58 
610  154  80  67  1019  2018-09-06 02:58:24 
611  151  81  67  1019  2018-09-06 03:12:50 
612  154  85  67  1019  2018-09-06 03:27:16 
613  151  79  70  1020  2018-09-06 03:41:42 
614  150  78  70  1020  2018-09-06 03:56:08 
615  148  75  70  1020  2018-09-06 04:10:33 
616  147  74  70  1020  2018-09-06 04:24:59 
617  147  78  70  1020  2018-09-06 04:39:25 
618  159  75  71  1020  2018-09-06 04:53:51 
619  145  75  71  1019  2018-09-06 05:08:17 
620  145  77  71  1020  2018-09-06 05:22:42 
621  146  78  71  1021  2018-09-06 05:37:08 
622  160  77  71  1022  2018-09-06 05:51:34 
623  149  82  71  1022  2018-09-06 06:06:00 
624  145  77  72  1023  2018-09-06 06:20:26 
625  140  78  72  1022  2018-09-06 06:34:52 
626  142  79  72  1022  2018-09-06 06:49:18 
627  143  76  72  1022  2018-09-06 07:03:44 
628  139  79  72  1022  2018-09-06 07:18:09 
629  153  86  72  1022  2018-09-06 07:32:35 
630  158  93  72  1022  2018-09-06 07:47:01 
631  147  93  72  1023  2018-09-06 08:01:27 
632  157  96  73  1023  2018-09-06 08:15:52 
633  142  98  73  1023  2018-09-06 08:30:17 
634  164  130  66  1022  2018-09-06 10:11:18 
635  165  139  65  1022  2018-09-06 10:25:44 
636  179  135  64  1022  2018-09-06 10:40:10 
637  176  135  64  1021  2018-09-06 10:54:36 
638  185  141  63  1021  2018-09-06 11:09:02 
639  166  145  63  1021  2018-09-06 11:23:28 
640  173  135  64  1021  2018-09-06 11:37:55 
641  162  127  64  1021  2018-09-06 11:52:21 
642  163  146  63  1021  2018-09-06 12:06:47 
643  176  153  62  1021  2018-09-06 12:21:13 
644  180  156  61  1021  2018-09-06 12:35:39 
645  168  164  61  1021  2018-09-06 12:50:06 
646  173  148  62  1020  2018-09-06 13:04:32 
647  174  174  62  1021  2018-09-06 13:18:58 
648  178  149  60  1021  2018-09-06 13:33:25 
649  181  145  60  1021  2018-09-06 13:47:51 
650  175  139  60  1021  2018-09-06 14:02:20 
651  182  100  65  1022  2018-09-06 15:54:06 
652  200  102  63  1022  2018-09-06 16:11:17 
653  201  106  63  1021  2018-09-06 16:14:06 
654  214  118  62  1021  2018-09-06 16:20:59 
655  210  117  62  1021  2018-09-06 16:21:06 
656  209  117  62  1021  2018-09-06 16:21:13 
657  205  117  62  1021  2018-09-06 16:21:20 
658  206  117  62  1021  2018-09-06 16:21:28 
659  206  116  62  1021  2018-09-06 16:21:35 
660  211  115  62  1021  2018-09-06 16:21:43 
661  205  117  62  1021  2018-09-06 16:21:50 
662  210  117  62  1021  2018-09-06 16:21:57 
663  211  117  61  1021  2018-09-06 16:22:04 
664  206  115  61  1021  2018-09-06 16:22:11 
665  212  113  61  1021  2018-09-06 16:22:18 
666  208  112  61  1021  2018-09-06 16:22:25 
667  205  112  61  1021  2018-09-06 16:22:32 
668  206  112  61  1021  2018-09-06 16:22:39 
669  206  114  61  1021  2018-09-06 16:22:46 
670  216  117  61  1021  2018-09-06 16:23:09 
671  205  116  61  1021  2018-09-06 16:23:15 
672  206  121  61  1021  2018-09-06 16:23:23 
673  207  120  61  1021  2018-09-06 16:23:30 
674  210  120  61  1021  2018-09-06 16:23:37 
675  207  120  61  1021  2018-09-06 16:23:44 
676  212  118  61  1021  2018-09-06 16:23:51 
677  207  121  61  1021  2018-09-06 16:23:58 
678  215  121  61  1021  2018-09-06 16:24:05 
679  209  123  61  1021  2018-09-06 16:24:12 
680  208  123  61  1021  2018-09-06 16:25:18 
681  213  120  61  1021  2018-09-06 16:25:25 
682  216  121  61  1020  2018-09-06 16:25:32 
683  208  120  61  1021  2018-09-06 16:25:39 
684  212  121  60  1021  2018-09-06 16:25:46 
685  224  120  54  1022  2018-09-06 17:22:28 
686  201  93  62  1022  2018-09-06 19:02:43 
687  219  89  55  1023  2018-09-06 20:43:00 
688  211  89  55  1023  2018-09-06 22:23:18 
689  164  83  64  1021  2018-09-07 00:03:38 
690  157  88  67  1022  2018-09-07 01:43:56 
691  161  82  71  1023  2018-09-07 03:24:15 
692  143  76  72  1023  2018-09-07 05:04:34 
693  142  76  72  1023  2018-09-07 06:44:52 
694  148  104  73  1023  2018-09-07 08:25:10 
695  146  129  72  1024  2018-09-07 10:05:29 
696  155  145  70  1023  2018-09-07 11:45:48 
697  165  161  64  1022  2018-09-07 13:26:08 
698  178  142  62  1022  2018-09-07 15:06:27 
699  209  145  62  1022  2018-09-07 16:46:46 
700  191  159  55  1025  2018-09-08 15:24:09 
701  184  133  56  1026  2018-09-08 17:04:25 
702  175  119  62  1026  2018-09-08 18:44:45 
703  175  106  64  1028  2018-09-08 20:25:05 
704  173  93  64  1029  2018-09-08 22:05:23 
705  166  87  66  1027  2018-09-08 23:45:40 
706  165  87  67  1027  2018-09-09 01:25:59 
707  144  80  70  1027  2018-09-09 03:06:18 
708  147  80  71  1027  2018-09-09 04:46:37 
709  139  73  71  1027  2018-09-09 06:26:56 
710  137  106  72  1027  2018-09-09 08:07:14 
711  165  139  71  1029  2018-09-09 09:47:33 
712  180  163  66  1028  2018-09-09 11:27:52 
713  176  176  57  1025  2018-09-09 13:08:12 
714  200  185  52  1025  2018-09-09 14:48:32 
715  212  166  52  1024  2018-09-09 16:28:52 
716  221  139  55  1024  2018-09-09 18:09:12 
717  232  125  53  1024  2018-09-09 19:49:32 
718  189  121  62  1024  2018-09-09 21:29:51 
719  176  117  64  1023  2018-09-09 23:10:11 
720  179  103  66  1021  2018-09-10 00:50:30 
721  165  79  66  1021  2018-09-10 02:30:48 
722  153  70  66  1019  2018-09-10 04:11:07 
723  149  69  67  1019  2018-09-10 05:51:26 
724  140  65  67  1021  2018-09-10 07:31:46 
725  144  133  70  1019  2018-09-10 09:12:04 
726  168  167  70  1019  2018-09-10 10:52:24 
727  195  182  67  1019  2018-09-10 12:32:43 
728  221  190  61  1018  2018-09-10 14:13:03 
729  222  183  60  1016  2018-09-10 15:53:23 
730  217  160  62  1016  2018-09-10 17:33:43 
731  205  144  67  1017  2018-09-10 19:14:02 
732  188  135  70  1017  2018-09-10 20:54:22 
733  174  117  71  1016  2018-09-10 22:34:42 
734  175  104  71  1015  2018-09-11 00:15:01 
735  162  85  71  1014  2018-09-11 01:55:18 
736  155  87  72  1013  2018-09-11 03:35:36 
737  165  85  72  1013  2018-09-11 04:16:39 
738  154  76  72  1013  2018-09-11 05:56:58 
739  148  82  72  1013  2018-09-11 07:37:17 
740  148  148  71  1013  2018-09-11 09:17:36 
741  178  218  61  1013  2018-09-11 10:57:55 
742  204  216  54  1013  2018-09-11 12:38:15 
743  237  239  52  1013  2018-09-11 14:18:35 
744  176  144  65  1018  2018-09-12 08:22:41 
745  190  148  65  1018  2018-09-12 09:29:31 
746  197  160  64  1018  2018-09-12 10:36:25 
747  195  168  64  1018  2018-09-12 11:43:19 
748  226  175  61  1017  2018-09-12 12:50:13 
749  222  189  56  1018  2018-09-12 13:57:07 
750  242  192  54  1016  2018-09-12 15:04:02 
751  236  175  53  1016  2018-09-12 16:10:56 
752  235  157  55  1016  2018-09-12 17:17:51 
753  224  154  57  1017  2018-09-12 18:24:45 
754  228  148  60  1017  2018-09-12 19:31:39 
755  229  145  60  1017  2018-09-12 20:38:34 
756  227  150  57  1018  2018-09-12 21:45:28 
757  196  136  64  1018  2018-09-12 22:52:23 
758  189  139  66  1017  2018-09-12 23:59:17 
759  180  145  67  1017  2018-09-13 01:06:11 
760  184  139  70  1017  2018-09-13 02:13:05 
761  177  146  70  1016  2018-09-13 03:19:59 
762  171  145  67  1018  2018-09-13 04:26:53 
763  177  134  71  1017  2018-09-13 05:33:47 
764  184  132  71  1018  2018-09-13 06:40:41 
765  170  139  73  1018  2018-09-13 07:47:35 
766  174  150  71  1019  2018-09-13 08:54:29 
767  188  153  70  1019  2018-09-13 10:01:23 
768  188  153  70  1019  2018-09-13 11:08:17 
769  216  160  65  1019  2018-09-13 12:15:12 
770  232  168  61  1019  2018-09-13 13:22:06 
771  241  178  57  1018  2018-09-13 14:29:01 
772  249  193  52  1018  2018-09-13 15:35:56 
773  238  178  52  1016  2018-09-13 16:42:50 
774  236  165  53  1018  2018-09-13 17:49:45 
775  242  154  55  1018  2018-09-13 18:56:39 
776  238  151  57  1018  2018-09-13 20:03:34 
777  245  150  57  1019  2018-09-13 21:10:29 
778  233  149  56  1019  2018-09-13 22:17:23 
779  214  149  62  1019  2018-09-13 23:24:18 
780  192  148  64  1019  2018-09-14 00:31:12 
781  184  144  65  1019  2018-09-14 01:38:06 
782  187  146  66  1019  2018-09-14 02:45:01 
783  185  145  67  1019  2018-09-14 03:51:55 
784  181  146  70  1018  2018-09-14 04:58:49 
785  187  144  70  1018  2018-09-14 06:05:43 
786  178  140  72  1019  2018-09-14 07:12:38 
787  174  142  73  1019  2018-09-14 08:19:32 
788  185  151  75  1019  2018-09-14 09:26:26 
789  178  160  74  1019  2018-09-14 10:33:20 
790  197  168  72  1019  2018-09-14 11:40:15 
791  203  185  71  1019  2018-09-14 12:47:09 
792  199  197  70  1018  2018-09-14 13:54:03 
793  212  204  64  1018  2018-09-14 15:00:58 
794  211  180  66  1018  2018-09-14 16:07:52 
795  215  174  64  1017  2018-09-14 17:14:46 
796  220  163  65  1018  2018-09-14 18:21:41 
797  219  157  66  1019  2018-09-14 19:28:35 
798  216  152  66  1019  2018-09-14 20:35:30 
799  219  149  66  1019  2018-09-14 21:16:34 
800  213  146  70  1020  2018-09-14 22:23:28 
801  203  138  71  1020  2018-09-14 23:30:22 
802  190  140  72  1019  2018-09-15 00:37:16 
803  195  138  73  1019  2018-09-15 01:44:11 
804  184  142  73  1019  2018-09-15 02:51:05 
805  190  137  74  1019  2018-09-15 03:57:59 
806  188  135  74  1018  2018-09-15 05:04:54 
807  180  125  74  1018  2018-09-15 06:11:48 
808  184  132  75  1019  2018-09-15 07:18:42 
809  185  136  76  1019  2018-09-15 08:25:37 
810  202  155  75  1020  2018-09-15 09:32:31 
811  186  164  73  1021  2018-09-15 10:39:25 
812  192  170  70  1019  2018-09-15 11:46:19 
813  201  179  65  1020  2018-09-15 12:53:14 
814  203  176  65  1019  2018-09-15 14:00:08 
815  223  182  63  1019  2018-09-15 15:07:02 
816  212  168  61  1018  2018-09-15 16:13:56 
817  214  160  61  1018  2018-09-15 17:20:51 
818  217  144  64  1018  2018-09-15 18:27:45 
819  232  139  62  1019  2018-09-15 19:34:39 
820  237  137  61  1019  2018-09-15 20:41:34 
821  232  137  60  1018  2018-09-15 21:48:28 
822  225  130  61  1018  2018-09-15 22:55:23 
823  227  122  62  1018  2018-09-16 00:02:17 
824  199  111  65  1016  2018-09-16 01:09:12 
825  180  100  67  1016  2018-09-16 02:16:06 
826  179  98  70  1015  2018-09-16 03:23:00 
827  175  104  71  1014  2018-09-16 04:29:54 
828  168  99  71  1015  2018-09-16 05:36:47 
829  179  97  72  1015  2018-09-16 06:43:40 
830  165  102  72  1015  2018-09-16 07:50:32 
831  167  140  73  1015  2018-09-16 08:57:26 
832  188  174  74  1015  2018-09-16 10:04:21 
833  202  201  71  1015  2018-09-16 11:11:15 
834  221  214  70  1013  2018-09-16 12:18:09 
835  211  210  62  1014  2018-09-16 13:25:04 
836  225  205  56  1012  2018-09-16 14:31:58 
837  226  206  54  1013  2018-09-16 15:38:53 
838  239  196  53  1013  2018-09-16 16:45:47 
839  219  167  60  1013  2018-09-16 17:52:42 
840  222  161  62  1013  2018-09-16 18:59:36 
841  236  160  60  1014  2018-09-16 20:06:31 
842  232  153  57  1014  2018-09-16 21:13:25 
843  208  137  64  1013  2018-09-16 22:20:19 
844  195  139  67  1012  2018-09-16 23:27:14 
845  190  136  71  1011  2018-09-17 00:34:08 
846  197  138  73  1011  2018-09-17 01:41:02 
847  199  137  73  1011  2018-09-17 02:47:56 
848  179  141  73  1011  2018-09-17 05:01:44 
849  190  145  73  1010  2018-09-17 06:08:39 
850  181  144  73  1010  2018-09-17 07:15:33 
851  188  148  71  1012  2018-09-17 08:22:27 
852  201  155  67  1012  2018-09-17 09:29:21 
853  188  168  67  1011  2018-09-17 10:10:25 
854  201  176  65  1012  2018-09-17 11:17:19 
855  212  182  64  1011  2018-09-17 12:24:14 
856  210  190  64  1010  2018-09-17 13:31:08 
857  215  166  66  1011  2018-09-17 14:38:02 
858  210  147  70  1011  2018-09-17 15:44:57 
859  204  151  72  1012  2018-09-17 16:51:51 
860  202  150  72  1012  2018-09-17 17:58:46 
861  194  146  73  1012  2018-09-17 19:05:40 
862  185  144  73  1013  2018-09-17 20:12:34 
863  188  147  73  1013  2018-09-17 21:19:29 
864  185  136  75  1013  2018-09-17 22:26:23 
865  180  142  75  1011  2018-09-17 23:33:17 
866  182  133  76  1012  2018-09-18 00:40:12 
867  175  131  76  1011  2018-09-18 01:47:06 
868  182  127  76  1011  2018-09-18 02:54:01 
869  175  135  76  1012  2018-09-18 04:00:55 
870  188  135  76  1011  2018-09-18 05:07:49 
871  176  127  76  1012  2018-09-18 06:14:43 
872  189  135  77  1012  2018-09-18 07:21:38 
873  173  138  77  1013  2018-09-18 08:28:33 
874  185  147  75  1015  2018-09-18 10:42:21 
875  192  152  74  1015  2018-09-18 11:49:15 
876  181  153  73  1015  2018-09-18 12:56:10 
877  187  161  71  1015  2018-09-18 14:03:04 
878  201  144  70  1014  2018-09-18 15:09:58 
879  200  154  67  1015  2018-09-18 16:16:52 
880  197  158  67  1016  2018-09-18 17:23:47 
881  192  139  70  1017  2018-09-18 18:30:41 
882  188  135  71  1017  2018-09-18 19:37:36 
883  192  128  70  1018  2018-09-18 20:44:30 
884  180  119  71  1019  2018-09-18 21:51:24 
885  173  117  72  1018  2018-09-18 22:58:18 
886  170  119  72  1018  2018-09-19 00:05:12 
887  166  125  71  1018  2018-09-19 01:12:06 
888  179  114  71  1019  2018-09-19 02:19:01 
889  162  112  70  1019  2018-09-19 03:25:55 
890  161  116  70  1019  2018-09-19 04:32:49 
891  154  89  71  1019  2018-09-19 05:39:43 
892  153  97  72  1021  2018-09-19 06:46:36 
893  153  90  73  1022  2018-09-19 07:53:29 
894  187  101  67  1024  2018-09-19 09:00:21 
895  211  91  63  1026  2018-09-19 10:07:14 
896  228  102  60  1027  2018-09-19 11:14:09 
897  213  95  56  1028  2018-09-19 12:21:03 
898  183  96  64  1028  2018-09-19 13:27:56 
899  213  141  62  1028  2018-09-19 14:34:51 
900  223  130  56  1029  2018-09-19 15:41:45 
901  216  126  54  1029  2018-09-19 16:48:40 
902  201  120  55  1030  2018-09-19 17:55:34 
903  198  108  60  1030  2018-09-19 19:02:29 
904  184  109  61  1033  2018-09-19 20:09:23 
905  178  92  62  1033  2018-09-19 21:16:17 
906  178  87  62  1032  2018-09-19 22:23:10 
907  177  76  62  1032  2018-09-19 23:04:14 
908  166  77  63  1032  2018-09-20 00:11:08 
909  171  72  62  1033  2018-09-20 01:18:02 
910  161  66  62  1033  2018-09-20 02:24:56 
911  163  65  62  1031  2018-09-20 03:31:50 
912  159  51  62  1030  2018-09-20 04:38:44 
913  160  48  63  1031  2018-09-20 05:45:38 
914  150  52  63  1030  2018-09-20 06:52:32 
915  164  87  64  1031  2018-09-20 07:59:26 
916  224  179  52  1025  2018-09-20 14:40:48 
917  215  171  52  1025  2018-09-20 15:47:43 
918  245  162  50  1026  2018-09-20 16:54:37 
919  223  137  52  1026  2018-09-20 18:01:32 
920  196  119  54  1026  2018-09-20 19:08:27 
921  188  111  57  1025  2018-09-20 20:15:22 
922  188  116  61  1026  2018-09-20 21:22:16 
923  171  118  62  1026  2018-09-20 22:29:10 
924  163  110  63  1027  2018-09-20 23:36:05 
925  164  111  64  1025  2018-09-21 00:42:59 
926  171  96  65  1026  2018-09-21 01:49:53 
927  159  94  66  1026  2018-09-21 02:56:45 
928  162  96  66  1025  2018-09-21 04:03:38 
929  166  100  67  1025  2018-09-21 05:10:30 
930  162  98  70  1025  2018-09-21 06:17:23 
931  147  110  71  1026  2018-09-21 07:24:17 
932  172  138  71  1026  2018-09-21 08:31:11 
933  153  145  71  1026  2018-09-21 09:38:05 
934  160  161  70  1026  2018-09-21 10:44:59 
935  167  175  66  1024  2018-09-21 11:51:53 
936  178  190  63  1024  2018-09-21 12:58:47 
937  200  188  61  1023  2018-09-21 14:05:42 
938  200  188  55  1024  2018-09-21 15:12:36 
939  215  186  51  1023  2018-09-21 16:19:30 
940  201  159  52  1023  2018-09-21 17:26:25 
941  196  143  54  1023  2018-09-21 18:33:19 
942  192  137  60  1024  2018-09-21 19:40:13 
943  194  136  61  1024  2018-09-21 20:47:08 
944  196  140  62  1024  2018-09-21 21:54:02 
945  179  129  62  1023  2018-09-21 23:00:57 
946  183  127  63  1023  2018-09-22 00:07:51 
947  173  133  63  1023  2018-09-22 01:14:45 
948  164  123  64  1022  2018-09-22 02:21:40 
949  179  110  64  1022  2018-09-22 03:28:34 
950  161  110  65  1021  2018-09-22 04:35:28 
951  209  185  60  1018  2018-09-22 15:18:38 
952  217  183  57  1018  2018-09-22 16:25:32 
953  219  160  61  1020  2018-09-22 17:32:26 
954  200  147  62  1020  2018-09-22 18:39:21 
955  189  143  64  1021  2018-09-22 19:46:15 
956  205  139  64  1021  2018-09-22 20:53:09 
957  209  139  63  1021  2018-09-22 22:00:04 
958  194  136  63  1021  2018-09-22 23:06:58 
959  180  131  64  1019  2018-09-23 00:13:52 
960  183  124  65  1020  2018-09-23 01:20:46 
961  180  128  66  1020  2018-09-23 02:27:40 
962  173  123  66  1020  2018-09-23 03:34:35 
963  170  120  67  1019  2018-09-23 04:41:29 
964  168  116  70  1021  2018-09-23 05:48:23 
965  165  115  70  1020  2018-09-23 06:55:18 
966  166  139  70  1021  2018-09-23 08:02:12 
967  168  159  70  1022  2018-09-23 09:09:06 
968  176  170  67  1022  2018-09-23 10:16:01 
969  188  181  66  1021  2018-09-23 11:22:55 
970  191  182  65  1022  2018-09-23 12:29:49 
971  213  188  65  1020  2018-09-23 13:36:43 
972  226  190  63  1019  2018-09-23 14:43:38 
973  243  184  62  1019  2018-09-23 15:40:25 
974  244  181  62  1020  2018-09-23 16:47:16 
975  232  149  62  1019  2018-09-23 17:54:10 
976  222  155  64  1019  2018-09-23 19:01:04 
977  224  149  65  1018  2018-09-23 20:07:59 
978  215  149  66  1019  2018-09-23 21:14:53 
979  202  148  67  1019  2018-09-23 22:21:48 
980  202  146  67  1018  2018-09-23 23:28:42 
981  197  145  67  1018  2018-09-24 00:35:36 
982  192  138  67  1018  2018-09-24 01:42:31 
983  190  137  67  1016  2018-09-24 02:49:25 
984  180  129  67  1015  2018-09-24 03:56:19 
985  187  129  67  1014  2018-09-24 05:03:14 
986  175  111  70  1014  2018-09-24 06:10:08 
987  173  110  70  1014  2018-09-24 07:17:02 
988  173  143  70  1014  2018-09-24 08:23:56 
989  196  166  70  1014  2018-09-24 09:30:50 
990  185  186  67  1014  2018-09-24 10:37:45 
991  198  201  67  1013  2018-09-24 11:44:39 
992  201  209  67  1013  2018-09-24 12:51:33 
993  219  217  66  1010  2018-09-24 13:58:27 
994  233  215  65  1010  2018-09-24 15:05:21 
995  235  195  66  1009  2018-09-24 16:12:16 
996  235  177  70  1009  2018-09-24 17:19:11 
997  220  160  70  1011  2018-09-24 18:26:05 
998  221  157  66  1011  2018-09-24 19:33:00 
999  235  148  65  1011  2018-09-24 20:39:54 
1000  233  143  63  1010  2018-09-24 21:46:49 
1001  216  127  66  1010  2018-09-24 22:53:43 
1002  208  129  67  1009  2018-09-25 00:00:37 
1003  190  130  70  1010  2018-09-25 01:07:32 
1004  204  136  70  1010  2018-09-25 02:14:26 
1005  187  145  71  1010  2018-09-25 03:21:21 
1006  187  143  71  1010  2018-09-25 04:28:16 
1007  191  142  71  1010  2018-09-25 05:35:10 
1008  185  139  71  1010  2018-09-25 06:42:05 
1009  188  145  70  1011  2018-09-25 07:48:59 
1010  194  152  65  1011  2018-09-25 08:55:54 
1011  213  138  62  1011  2018-09-25 10:02:48 
1012  239  161  60  1012  2018-09-25 12:16:37 
1013  250  173  55  1011  2018-09-25 13:23:32 
1014  257  185  55  1010  2018-09-25 14:30:26 
1015  241  168  57  1011  2018-09-25 15:37:21 
1016  228  166  57  1012  2018-09-25 16:44:15 
1017  215  157  61  1011  2018-09-25 17:51:10 
1018  222  146  62  1013  2018-09-25 18:58:04 
1019  213  137  62  1014  2018-09-25 20:04:58 
1020  202  139  63  1014  2018-09-25 21:11:53 
1021  198  139  64  1016  2018-09-25 22:18:47 

 

Home